Corvallis Municipal Airport
KCVO : now visible

Airfield :











YOU CAN JOIN US ON...

 
LOGIN :

Register | Disclaimer

   EN    FR    IT 

 









Legend :    VFR   Marginal VFR   IFR   Intensive IFR   Very Intensive IFR
Visi :
Ceiling :
>= 8 km
>= 3000ft
5 to 8 km
1000 to 3000 ft
1500m to 5 km
500 to 1000 ft
800 to 1500m
200 to 500 ft
< 800m
< 200 ft
Symbols :   Thunderstorms  Fog  Heavy snow  Heavy precipitations  Wind > 20 kt






- Airport Elevation : 250 ft


KCVO - Corvallis Municipal

CURRENT METAR :
  • 211656Z AUTO VRB04KT 10SM FEW110 12/06 A3020 RMK AO2 SLP228 T01220056 PNO $

EXPIRED METARs :
  • 211556Z AUTO 00000KT 10SM CLR 11/06 A3022 RMK AO2 SLP233 T01110061 PNO $
  • 211456Z AUTO 00000KT 10SM CLR 09/06 A3023 RMK AO2 SLP236 6//// T00890061 58005 PNO $
  • 211356Z AUTO 00000KT 10SM CLR 07/05 A3024 RMK AO2 SLP241 T00670050 PNO $
  • 211256Z AUTO 00000KT 10SM CLR 04/03 A3024 RMK AO2 SLP240 T00390028 PNO $

TAF N/A
KZSE FIR / North America



MET'MAP, your aeronautical weather chart ! - Copyright ORBIFLY December 2007 - Disclaimer

ORBIFLY MET'MAP TEAM :

Programming & Development : Alexandra Zaïnal
Original concept : Baudouin d'Aumeries
Technical & hardware support : Manuel Goepfert
Assistance : Marc-Olivier Méhu




SOURCES & CREDITS :

   NOAA       Earth
Advisory